TimeCDT,TemperatureF,Dew PointF,Humidity,Sea Level PressureIn,VisibilityMPH,Wind Direction,Wind SpeedMPH,Gust SpeedMPH,PrecipitationIn,Events,Conditions,WindDirDegrees,DateUTC
12:17 AM,35.6,32.0,87,29.81,10.0,NNW,3.5,-,N/A,,Clear,330,2013-10-20 05:17:00
12:36 AM,35.6,33.8,93,29.81,10.0,NW,4.6,-,N/A,,Clear,310,2013-10-20 05:36:00
12:57 AM,35.6,33.8,93,29.81,10.0,Calm,Calm,-,N/A,,Clear,0,2013-10-20 05:57:00
1:17 AM,35.6,32.0,87,29.81,10.0,West,3.5,-,N/A,,Clear,280,2013-10-20 06:17:00
1:37 AM,35.6,32.0,87,29.80,10.0,WNW,3.5,-,N/A,,Clear,300,2013-10-20 06:37:00
1:56 AM,33.8,32.0,93,29.81,10.0,Calm,Calm,-,N/A,,Clear,0,2013-10-20 06:56:00
2:17 AM,33.8,32.0,93,29.80,10.0,Calm,Calm,-,N/A,,Clear,0,2013-10-20 07:17:00
2:37 AM,33.8,32.0,93,29.80,10.0,Calm,Calm,-,N/A,,Clear,0,2013-10-20 07:37:00
2:56 AM,33.8,32.0,93,29.81,10.0,Calm,Calm,-,N/A,,Clear,0,2013-10-20 07:56:00
3:17 AM,33.8,32.0,93,29.80,10.0,Calm,Calm,-,N/A,,Clear,0,2013-10-20 08:17:00
3:37 AM,32.0,32.0,100,29.80,2.0,Calm,Calm,-,N/A,,Clear,0,2013-10-20 08:37:00
3:56 AM,33.8,32.0,93,29.80,10.0,Calm,Calm,-,N/A,,Clear,0,2013-10-20 08:56:00
4:17 AM,32.0,32.0,100,29.80,10.0,Calm,Calm,-,N/A,,Clear,0,2013-10-20 09:17:00
4:37 AM,32.0,32.0,100,29.80,10.0,Calm,Calm,-,N/A,,Clear,0,2013-10-20 09:37:00
4:56 AM,30.2,30.2,100,29.80,2.5,Calm,Calm,-,N/A,,Clear,0,2013-10-20 09:56:00
5:17 AM,32.0,32.0,100,29.80,10.0,Calm,Calm,-,N/A,,Clear,0,2013-10-20 10:17:00
5:36 AM,32.0,32.0,100,29.80,10.0,Calm,Calm,-,N/A,,Scattered Clouds,0,2013-10-20 10:36:00
5:56 AM,32.0,32.0,100,29.80,10.0,Calm,Calm,-,N/A,,Mostly Cloudy,0,2013-10-20 10:56:00
6:17 AM,33.8,33.8,100,29.80,10.0,Calm,Calm,-,N/A,,Overcast,0,2013-10-20 11:17:00
6:36 AM,33.8,32.0,93,29.80,10.0,Calm,Calm,-,N/A,,Overcast,0,2013-10-20 11:36:00
6:56 AM,33.8,32.0,93,29.79,10.0,Calm,Calm,-,N/A,,Overcast,0,2013-10-20 11:56:00
7:17 AM,33.8,32.0,93,29.80,10.0,Calm,Calm,-,N/A,,Overcast,0,2013-10-20 12:17:00
7:36 AM,33.8,32.0,93,29.80,10.0,SSE,3.5,-,N/A,,Overcast,150,2013-10-20 12:36:00
7:56 AM,33.8,32.0,93,29.79,10.0,SE,4.6,-,N/A,,Overcast,140,2013-10-20 12:56:00
8:17 AM,33.8,32.0,93,29.78,10.0,SE,3.5,-,N/A,Rain,Light Rain,140,2013-10-20 13:17:00
8:36 AM,33.8,32.0,93,29.78,10.0,SE,5.8,-,N/A,,Drizzle,140,2013-10-20 13:36:00
8:57 AM,35.6,33.8,93,29.77,10.0,SE,6.9,-,N/A,,Light Drizzle,130,2013-10-20 13:57:00
9:17 AM,35.6,35.6,100,29.77,7.0,SE,5.8,-,N/A,Rain,Light Rain,140,2013-10-20 14:17:00
9:36 AM,35.6,35.6,100,29.77,10.0,SE,6.9,-,N/A,,Light Drizzle,140,2013-10-20 14:36:00
9:57 AM,35.6,35.6,100,29.75,10.0,SE,6.9,-,N/A,,Overcast,130,2013-10-20 14:57:00
10:16 AM,35.6,35.6,100,29.75,10.0,ESE,8.1,-,N/A,Rain,Rain,120,2013-10-20 15:16:00
10:37 AM,37.4,35.6,93,29.75,5.0,SE,6.9,-,N/A,Rain,Light Rain,130,2013-10-20 15:37:00
10:57 AM,37.4,37.4,100,29.75,5.0,SE,6.9,-,N/A,,Drizzle,130,2013-10-20 15:57:00
11:16 AM,37.4,37.4,100,29.73,7.0,ESE,8.1,-,N/A,,Drizzle,120,2013-10-20 16:16:00
11:37 AM,37.4,37.4,100,29.73,7.0,SSE,5.8,-,N/A,Rain,Light Rain,150,2013-10-20 16:37:00
11:57 AM,37.4,35.6,93,29.72,10.0,SSE,4.6,-,N/A,,Overcast,160,2013-10-20 16:57:00
12:16 PM,39.2,37.4,93,29.72,10.0,SE,5.8,-,N/A,Rain,Light Rain,130,2013-10-20 17:16:00
12:37 PM,41.0,37.4,87,29.71,10.0,SE,6.9,-,N/A,,Light Drizzle,140,2013-10-20 17:37:00
12:57 PM,41.0,37.4,87,29.69,10.0,SE,6.9,-,N/A,,Overcast,140,2013-10-20 17:57:00
1:16 PM,41.0,37.4,87,29.67,10.0,SE,10.4,-,N/A,,Overcast,130,2013-10-20 18:16:00
1:37 PM,41.0,37.4,87,29.67,10.0,SSE,4.6,-,N/A,,Scattered Clouds,150,2013-10-20 18:37:00
1:57 PM,42.8,37.4,81,29.66,10.0,SE,6.9,-,N/A,,Scattered Clouds,140,2013-10-20 18:57:00
2:16 PM,42.8,37.4,81,29.66,10.0,SE,4.6,-,N/A,,Scattered Clouds,140,2013-10-20 19:16:00
2:37 PM,46.4,41.0,81,29.66,10.0,SSE,6.9,-,N/A,,Mostly Cloudy,150,2013-10-20 19:37:00
2:57 PM,48.2,41.0,76,29.65,10.0,SSE,4.6,-,N/A,,Scattered Clouds,160,2013-10-20 19:57:00
3:16 PM,48.2,39.2,71,29.64,10.0,Calm,Calm,-,N/A,,Scattered Clouds,0,2013-10-20 20:16:00
3:37 PM,48.2,37.4,66,29.65,10.0,Calm,Calm,-,N/A,,Mostly Cloudy,0,2013-10-20 20:37:00
3:56 PM,48.2,37.4,66,29.66,10.0,SW,5.8,-,N/A,,Overcast,230,2013-10-20 20:56:00
4:17 PM,51.8,41.0,67,29.65,10.0,SSW,3.5,-,N/A,,Overcast,210,2013-10-20 21:17:00
4:37 PM,51.8,41.0,67,29.64,10.0,Calm,Calm,-,N/A,,Mostly Cloudy,0,2013-10-20 21:37:00
4:56 PM,51.8,41.0,67,29.65,10.0,Calm,Calm,-,N/A,,Overcast,0,2013-10-20 21:56:00
5:17 PM,50.0,41.0,71,29.64,10.0,Calm,Calm,-,N/A,,Overcast,0,2013-10-20 22:17:00
5:36 PM,50.0,41.0,71,29.64,10.0,SSE,3.5,-,N/A,,Overcast,150,2013-10-20 22:36:00
5:56 PM,50.0,41.0,71,29.64,10.0,SSW,6.9,-,N/A,Rain,Rain,200,2013-10-20 22:56:00
6:17 PM,48.2,42.8,82,29.65,10.0,SW,5.8,-,N/A,,Light Drizzle,230,2013-10-20 23:17:00
6:36 PM,48.2,41.0,76,29.66,10.0,West,5.8,-,N/A,Rain,Light Rain,270,2013-10-20 23:36:00
6:56 PM,48.2,42.8,82,29.67,10.0,WNW,12.7,19.6,N/A,,Overcast,290,2013-10-20 23:56:00
7:17 PM,48.2,44.6,87,29.68,7.0,West,12.7,23.0,N/A,,Overcast,280,2013-10-21 00:17:00
7:36 PM,48.2,44.6,87,29.69,10.0,West,10.4,20.7,N/A,,Light Drizzle,280,2013-10-21 00:36:00
7:56 PM,48.2,44.6,87,29.71,10.0,WNW,17.3,-,N/A,Rain,Light Rain,300,2013-10-21 00:56:00
8:17 PM,46.4,41.0,81,29.72,10.0,WNW,13.8,19.6,N/A,,Overcast,300,2013-10-21 01:17:00
8:36 PM,46.4,41.0,81,29.73,10.0,WNW,16.1,21.9,N/A,,Overcast,300,2013-10-21 01:36:00
8:57 PM,44.6,37.4,76,29.74,10.0,WNW,15.0,21.9,N/A,,Overcast,300,2013-10-21 01:57:00
9:17 PM,42.8,37.4,81,29.76,10.0,WNW,18.4,26.5,N/A,,Overcast,300,2013-10-21 02:17:00
9:36 PM,41.0,37.4,87,29.77,10.0,WNW,10.4,18.4,N/A,,Overcast,300,2013-10-21 02:36:00
9:57 PM,41.0,35.6,81,29.79,10.0,WNW,15.0,23.0,N/A,,Overcast,290,2013-10-21 02:57:00
10:17 PM,41.0,33.8,76,29.80,10.0,WNW,15.0,23.0,N/A,,Overcast,300,2013-10-21 03:17:00
10:36 PM,41.0,33.8,76,29.81,10.0,WNW,13.8,23.0,N/A,,Overcast,300,2013-10-21 03:36:00
10:57 PM,39.2,32.0,75,29.82,10.0,NW,12.7,21.9,N/A,,Overcast,310,2013-10-21 03:57:00
11:17 PM,37.4,32.0,81,29.82,10.0,NW,13.8,19.6,N/A,,Overcast,310,2013-10-21 04:17:00
11:36 PM,37.4,32.0,81,29.83,10.0,NW,15.0,18.4,N/A,,Overcast,310,2013-10-21 04:36:00
11:57 PM,37.4,32.0,81,29.84,10.0,WNW,10.4,-,N/A,,Overcast,300,2013-10-21 04:57:00